sat.trackr.live / text

‹ back to catalog

FLOCK 4BE-29

NORAD 60509 · 2024-149AT

PAYLOAD ACTIVE UNKNOWN

§ Identity

Operator
Country
US
Launch date
2024-08-16
Launch site
AFWTR
Launch vehicle
Mass (kg)
RCS (m²)

Purposes: earth_obs

External: N2YO · Heavens-Above · Gunter

§ Orbital elements

Epoch: 2026-09-19T04:25:44.067648Z

Period
92.96 min
Inclination
97.3757°
Eccentricity
0.0001547
Mean motion
15.49000154 rev/d
Perigee alt
418.6 km
Apogee alt
420.7 km
Semi-major
6,797.8 km
B*
3.1477e-4
RAAN
349.7987°
Arg perigee
8.2969°
Mean anomaly
351.8307°
Rev number
11,694

§ Raw data

FLOCK 4BE-291 60509U 24149AT  26262.18453782  .00016952  00000+0  31477-3 0  99932 60509  97.3757 349.7987 0001547   8.2969 351.8307 15.49000154116945

JSON: /api/v1/satellites/60509 · /tle

For live sub-satellite position, see the globe view (requires WebGL).

§ Visibility from observer

Set your observer location to see the next 7 days of passes ≥ 10°. The values pass through the URL so the page stays shareable.

No JS? Fill the form by hand. The geolocation button needs JavaScript.